DW8618 Nerja ES current weather conditions

sailwx.info

Wind from 196 at 1 knots gusting 6

Air temperature 22.8° C
Dewpoint 11.5° C

Last reported at 2015-May-27 14:45 UTC.
Time now 2015-May-27 15:56 UTC

Location: N 36°46' W 003°52'.
View on Google Maps.

See reports from other nearby stations

  
Tides and Currents Weather Stations Pressure Air Temp Water Temp Dewpoint Dewpoint Depression Visibility Wind Speed Wind Dir Waves Ship Positions
date/time (UTC)wind fromknots sea level pressurealtimeterstation pressurevisibilityair tempwater tempwave heightnotes
2015-May-27 14:45 196 1 gusting 6 22.8
2015-May-27 14:30 196 0 gusting 5 23.3
2015-May-27 14:15 196 2 gusting 6 22.2
2015-May-27 14:01 196 2 gusting 6 21.7
2015-May-27 13:46 196 4 gusting 6 21.1
2015-May-27 13:30 196 1 gusting 4 21.7
2015-May-27 13:15 196 4 gusting 6 21.1
2015-May-27 13:01 196 2 gusting 6 20.6
2015-May-27 12:45 196 4 gusting 7 21.1
2015-May-27 12:30 196 5 gusting 7 20.6
2015-May-27 12:15 198 5 gusting 6 21.1
2015-May-27 12:01 201 2 gusting 6 21.1
2015-May-27 11:46 207 6 gusting 7 21.1
2015-May-27 11:30 211 4 gusting 7 21.1
2015-May-27 11:15 215 4 gusting 8 20.6
2015-May-27 11:01 221 1 gusting 6 21.1
2015-May-27 10:45 227 2 gusting 6 20.6
2015-May-27 10:31 229 2 gusting 7 21.1
2015-May-27 10:15 232 0 gusting 6 21.1
2015-May-27 10:01 242 1 gusting 7 20.6
2015-May-27 09:45 246 4 gusting 8 20.0
2015-May-27 09:30 251 1 gusting 7 19.4
2015-May-27 09:15 259 19.4
2015-May-27 09:01 259 19.4
2015-May-27 08:45 259 3 gusting 6 19.4
2015-May-27 08:31 259 0 gusting 5 19.4
2015-May-27 08:15 265 1 gusting 6 20.0
2015-May-27 08:01 265 2 gusting 6 20.0
2015-May-27 07:45 278 2 gusting 5 20.6
2015-May-27 07:31 279 20.0
2015-May-27 07:15 279 1 gusting 3 20.6
2015-May-27 07:01 279 21.7
2015-May-27 06:45 279 20.6
2015-May-27 06:30 279 19.4
2015-May-27 06:15 279 18.3
2015-May-27 06:01 280 18.3
2015-May-27 05:45 279 18.3
2015-May-27 05:30 279 17.8
2015-May-27 05:15 279 17.8
2015-May-27 05:01 274 17.8
2015-May-27 04:45 274 17.8
2015-May-27 04:31 274 17.8
2015-May-27 04:15 274 17.8
2015-May-27 04:01 274 17.8
2015-May-27 03:46 274 17.2
2015-May-27 03:30 274 17.2
2015-May-27 03:15 274 17.2
2015-May-27 03:01 274 0 gusting 3 17.8
2015-May-27 02:45 274 17.8
2015-May-27 02:30 274 18.3
2015-May-27 02:15 274 18.3
2015-May-27 02:01 274 18.3
2015-May-27 01:45 274 18.3
2015-May-27 01:31 274 18.3
2015-May-27 01:15 274 18.9
2015-May-27 01:01 274 19.4
2015-May-27 00:45 274 18.9
2015-May-27 00:30 273 5 gusting 10 18.9
2015-May-27 00:16 235 3 gusting 6 18.3
2015-May-27 00:01 222 2 gusting 5 17.8
2015-May-26 23:45 202 0 gusting 4 17.8
2015-May-26 23:30 202 17.8
2015-May-26 23:15 202 18.3
2015-May-26 23:01 202 18.3
2015-May-26 22:45 202 18.3
2015-May-26 22:30 202 18.3
2015-May-26 22:15 202 18.3
2015-May-26 22:01 202 18.3
2015-May-26 21:45 202 18.3
2015-May-26 21:30 202 18.3
2015-May-26 21:15 202 17.8
2015-May-26 21:01 202 17.8
2015-May-26 20:45 202 18.9
2015-May-26 20:30 202 18.9
2015-May-26 20:16 202 18.9
2015-May-26 20:01 202 18.9
2015-May-26 19:45 202 18.9
2015-May-26 19:30 202 18.9
2015-May-26 19:15 202 18.9
2015-May-26 19:01 202 18.9
2015-May-26 18:46 202 18.9
2015-May-26 18:30 202 19.4
2015-May-26 18:15 202 19.4
2015-May-26 18:01 202 20.0
2015-May-26 17:45 202 0 gusting 3 20.0
2015-May-26 17:30 202 20.0
2015-May-26 17:15 202 20.6
2015-May-26 17:01 202 20.0
2015-May-26 16:45 202 0 gusting 5 20.0
2015-May-26 16:30 202 4 gusting 6 20.6
2015-May-26 16:16 202 1 gusting 6 20.6
2015-May-26 16:01 202 20.6
2015-May-26 15:45 202 20.6
2015-May-26 15:30 202 0 gusting 4 20.6
2015-May-26 15:16 202 21.1
2015-May-26 15:01 202 0 gusting 4 21.1
2015-May-26 14:46 202 1 gusting 6 20.6
2015-May-26 14:30 202 4 gusting 6 20.6
2015-May-26 14:15 202 2 gusting 6 20.6
2015-May-26 14:01 205 4 gusting 8 20.6
2015-May-26 13:45 207 2 gusting 7 20.6
2015-May-26 13:30 207 2 gusting 7 20.6
2015-May-26 13:15 207 2 gusting 7 20.6
2015-May-26 13:01 207 5 gusting 7 20.6
2015-May-26 12:45 207 3 gusting 9 20.6
2015-May-26 12:31 204 5 gusting 9 20.0
2015-May-26 12:15 207 2 gusting 8 20.6
2015-May-26 12:01 210 3 gusting 10 20.0
2015-May-26 11:46 216 1 gusting 10 20.6
2015-May-26 11:31 216 2 gusting 6 20.6
2015-May-26 11:15 217 5 gusting 9 20.6
2015-May-26 11:01 219 3 gusting 9 20.6
2015-May-26 10:45 223 5 gusting 8 20.6
2015-May-26 10:30 227 1 gusting 6 20.6
2015-May-26 10:15 227 0 gusting 8 20.6
2015-May-26 10:01 239 3 gusting 9 20.6
2015-May-26 09:45 247 3 gusting 9 20.6
2015-May-26 09:30 250 4 gusting 8 20.6
2015-May-26 09:16 258 1 gusting 8 20.0
2015-May-26 09:01 267 0 gusting 6 20.0
2015-May-26 08:45 268 4 gusting 6 20.0
2015-May-26 08:30 268 2 gusting 5 20.0
2015-May-26 08:15 268 20.0
2015-May-26 08:01 268 19.4
2015-May-26 07:45 268 19.4
2015-May-26 07:31 268 19.4
2015-May-26 07:15 268 20.0
2015-May-26 07:01 268 19.4
2015-May-26 06:45 268 18.9
2015-May-26 06:31 268 17.8
2015-May-26 06:15 268 0 gusting 6 17.2
2015-May-26 06:01 268 1 gusting 6 16.7
2015-May-26 05:45 267 2 gusting 7 16.7
2015-May-26 05:31 266 1 gusting 6 16.1
2015-May-26 05:15 256 5 gusting 9 16.1
2015-May-26 05:01 232 2 gusting 6 15.6
2015-May-26 04:45 220 2 gusting 5 15.6
2015-May-26 04:30 209 15.6
2015-May-26 04:15 209 15.6
2015-May-26 04:01 209 15.6
2015-May-26 03:45 209 15.6
2015-May-26 03:31 209 15.6
2015-May-26 03:15 209 15.6
2015-May-26 03:01 209 15.6
2015-May-26 02:45 209 16.1
2015-May-26 02:30 209 16.1
2015-May-26 02:16 209 16.1
2015-May-26 02:01 209 16.1
2015-May-26 01:45 209 16.1
2015-May-26 01:31 209 16.1
2015-May-26 01:15 209 16.1
2015-May-26 01:01 209 1 gusting 3 16.1
2015-May-26 00:45 209 0 gusting 4 16.1
2015-May-26 00:30 198 0 gusting 4 16.1
2015-May-26 00:16 197 16.1
2015-May-26 00:01 197 16.1
2015-May-25 23:45 197 16.1
2015-May-25 23:30 197 16.1
2015-May-25 23:16 197 16.1
2015-May-25 23:01 197 16.1
2015-May-25 22:45 197 16.1
2015-May-25 22:30 197 16.7
2015-May-25 22:16 197 16.7
2015-May-25 22:01 197 16.7
2015-May-25 21:45 197 16.7
2015-May-25 21:30 197 16.1
2015-May-25 21:16 196 16.7
2015-May-25 21:01 196 17.8
2015-May-25 20:45 196 17.8
2015-May-25 20:30 196 18.3
2015-May-25 20:15 196 18.9
2015-May-25 20:01 196 18.9
2015-May-25 19:46 196 0 gusting 3 18.9
2015-May-25 19:30 196 19.4
2015-May-25 19:15 196 19.4
2015-May-25 19:01 196 0 gusting 3 20.0
2015-May-25 18:45 196 20.0
2015-May-25 18:30 196 1 gusting 4 20.0
2015-May-25 18:16 196 20.0
2015-May-25 18:01 196 20.0
2015-May-25 17:46 196 1 gusting 5 20.0
2015-May-25 17:30 196 2 gusting 5 20.0
2015-May-25 17:15 196 1 gusting 5 20.0
2015-May-25 17:01 196 0 gusting 4 20.0
2015-May-25 16:45 196 0 gusting 5 20.0
2015-May-25 16:30 196 2 gusting 6 20.6
2015-May-25 16:15 196 0 gusting 4 20.6
2015-May-25 16:01 195 2 gusting 6 20.6
2015-May-25 15:45 193 1 gusting 4 20.6
2015-May-25 15:30 193 1 gusting 5 20.6
2015-May-25 15:15 193 0 gusting 6 20.0
2015-May-25 15:01 193 3 gusting 6 20.6